CAT702 GCLA-EKBI

Flight info

Callsign CAT702
Flight time N/A
Altitude 35998
Route KONBA UN866 BEXAL DCT LIGRA DCT NSA DCT TOSDI N745 ZMR N873 DELOG DCT YURZI UL14 TEPRA UN867 MOKOR UN873 BAZOS DCT CMB DCT ADUTO N873 MIKRO P614 BAVIL
Aircraft B738/M-SDE2E3FGHIRWXY/LB1

Departure

Time N/A
Airport La Palma Airport (GCLA)

Arrival

Time 2026-05-06 15:43
Airport Billund Airport (EKBI)
Time Latitude Longitude Altitude Speed Heading
2026-05-06 12:41 37.72333 -9.85118 36052 ft 470 kts 33°
2026-05-06 12:42 37.77553 -9.80226 36048 ft 470 kts 33°
2026-05-06 12:42 37.82813 -9.75288 36045 ft 470 kts 33°
2026-05-06 12:43 37.88067 -9.70346 36046 ft 470 kts 33°
2026-05-06 12:43 37.93319 -9.65396 36040 ft 470 kts 33°
2026-05-06 12:44 37.98570 -9.60439 36037 ft 471 kts 33°
2026-05-06 12:44 38.03760 -9.55351 36037 ft 472 kts 36°
2026-05-06 12:45 38.08814 -9.50023 36032 ft 472 kts 37°
2026-05-06 12:46 38.16355 -9.42037 36031 ft 472 kts 36°
2026-05-06 12:46 38.21423 -9.36713 36028 ft 472 kts 36°
2026-05-06 12:47 38.26498 -9.31389 36026 ft 473 kts 36°
2026-05-06 12:47 38.31572 -9.26056 36020 ft 473 kts 36°
2026-05-06 12:48 38.36650 -9.20709 36017 ft 473 kts 36°
2026-05-06 12:48 38.41715 -9.15363 36012 ft 473 kts 36°
2026-05-06 12:49 38.46793 -9.09994 36017 ft 474 kts 36°
2026-05-06 12:49 38.51870 -9.04615 36017 ft 474 kts 36°
2026-05-06 12:50 38.56948 -8.99226 36021 ft 475 kts 36°
2026-05-06 12:50 38.62041 -8.93810 36023 ft 475 kts 37°
2026-05-06 12:51 38.67095 -8.88425 36016 ft 476 kts 37°
2026-05-06 12:51 38.72190 -8.82985 36016 ft 476 kts 37°
2026-05-06 12:52 38.77279 -8.77543 36008 ft 476 kts 37°
2026-05-06 12:52 38.82369 -8.72088 36003 ft 477 kts 37°
2026-05-06 12:53 38.87454 -8.66629 35995 ft 477 kts 37°
2026-05-06 12:53 38.92543 -8.61155 35988 ft 477 kts 37°
2026-05-06 12:54 38.97597 -8.55707 35983 ft 477 kts 37°
2026-05-06 12:54 39.02686 -8.50212 35981 ft 478 kts 37°
2026-05-06 12:55 39.07773 -8.44707 35987 ft 478 kts 37°
2026-05-06 12:55 39.12866 -8.39186 35981 ft 478 kts 37°
2026-05-06 12:56 39.17951 -8.33662 35982 ft 479 kts 37°
2026-05-06 12:56 39.23048 -8.28114 35982 ft 479 kts 37°
2026-05-06 12:57 39.28138 -8.22562 35973 ft 479 kts 37°
2026-05-06 12:57 39.32372 -8.17936 35974 ft 479 kts 38°
2026-05-06 12:58 39.38289 -8.11459 35978 ft 479 kts 38°
2026-05-06 12:58 39.42545 -8.06790 35970 ft 479 kts 38°
2026-05-06 12:59 39.47597 -8.01238 35972 ft 479 kts 38°
2026-05-06 12:59 39.52684 -7.95636 35965 ft 480 kts 38°
2026-05-06 13:00 39.57766 -7.90029 35968 ft 480 kts 38°
2026-05-06 13:00 39.62844 -7.84400 35964 ft 480 kts 38°
2026-05-06 13:01 39.67915 -7.78762 35968 ft 480 kts 38°
2026-05-06 13:01 39.72992 -7.73105 35968 ft 480 kts 38°
2026-05-06 13:02 39.78063 -7.67446 35958 ft 481 kts 38°
2026-05-06 13:02 39.83139 -7.61769 35966 ft 481 kts 38°
2026-05-06 13:03 39.88217 -7.56078 35966 ft 481 kts 38°
2026-05-06 13:03 39.93293 -7.50380 35964 ft 482 kts 38°
2026-05-06 13:04 39.98366 -7.44671 35959 ft 482 kts 39°
2026-05-06 13:04 40.03399 -7.38996 35955 ft 481 kts 39°
2026-05-06 13:05 40.08473 -7.33265 35956 ft 481 kts 39°
2026-05-06 13:05 40.13532 -7.27538 35961 ft 481 kts 39°
2026-05-06 13:06 40.18586 -7.21805 35955 ft 481 kts 39°
2026-05-06 13:06 40.23638 -7.16062 35957 ft 481 kts 39°
2026-05-06 13:07 40.28686 -7.10312 35959 ft 481 kts 39°
2026-05-06 13:07 40.33730 -7.04555 35957 ft 481 kts 39°
2026-05-06 13:08 40.38741 -6.98824 35966 ft 480 kts 39°
2026-05-06 13:08 40.43774 -6.93056 35959 ft 480 kts 39°
2026-05-06 13:09 40.48809 -6.87273 35958 ft 480 kts 39°
2026-05-06 13:09 40.53836 -6.81488 35956 ft 480 kts 39°
2026-05-06 13:10 40.58852 -6.75704 35959 ft 479 kts 39°
2026-05-06 13:10 40.63854 -6.69923 35966 ft 479 kts 39°
2026-05-06 13:11 40.68855 -6.64132 35959 ft 479 kts 39°
2026-05-06 13:11 40.73855 -6.58329 35960 ft 479 kts 39°
2026-05-06 13:12 40.78857 -6.52512 35970 ft 479 kts 39°
2026-05-06 13:12 40.83853 -6.46690 35960 ft 479 kts 39°
2026-05-06 13:13 40.88846 -6.40859 35966 ft 479 kts 39°
2026-05-06 13:13 40.93834 -6.35021 35965 ft 479 kts 39°
2026-05-06 13:14 40.98824 -6.29170 35962 ft 479 kts 39°
2026-05-06 13:14 41.03758 -6.23324 35975 ft 479 kts 40°
2026-05-06 13:15 41.08705 -6.17412 35975 ft 478 kts 40°
2026-05-06 13:15 41.13641 -6.11502 35982 ft 478 kts 40°
2026-05-06 13:16 41.18584 -6.05580 35974 ft 478 kts 40°
2026-05-06 13:16 41.23523 -5.99651 35982 ft 478 kts 40°
2026-05-06 13:17 41.28450 -5.93723 35973 ft 478 kts 40°
2026-05-06 13:17 41.33376 -5.87784 35975 ft 478 kts 40°
2026-05-06 13:18 41.38294 -5.81842 35987 ft 477 kts 40°
2026-05-06 13:18 41.43177 -5.75929 35981 ft 477 kts 40°
2026-05-06 13:19 41.48087 -5.69971 35982 ft 477 kts 40°
2026-05-06 13:19 41.53147 -5.64276 35974 ft 474 kts 30°
2026-05-06 13:20 41.59004 -5.60397 36011 ft 468 kts 19°
2026-05-06 13:20 41.65035 -5.57106 35986 ft 468 kts 19°
2026-05-06 13:21 41.71063 -5.53785 35983 ft 468 kts 19°
2026-05-06 13:21 41.77074 -5.50407 35984 ft 469 kts 20°
2026-05-06 13:22 41.83079 -5.47001 35987 ft 468 kts 20°
2026-05-06 13:22 41.89038 -5.43611 35982 ft 469 kts 20°
2026-05-06 13:23 41.95079 -5.40169 35984 ft 469 kts 20°
2026-05-06 13:23 42.01045 -5.36766 35982 ft 469 kts 20°
2026-05-06 13:24 42.07059 -5.33327 35981 ft 469 kts 20°
2026-05-06 13:24 42.13059 -5.29891 35983 ft 469 kts 20°
2026-05-06 13:25 42.19062 -5.26444 35982 ft 469 kts 20°
2026-05-06 13:25 42.25061 -5.22993 35979 ft 469 kts 20°
2026-05-06 13:26 42.31062 -5.19534 35976 ft 468 kts 20°
2026-05-06 13:26 42.37059 -5.16070 35976 ft 468 kts 20°
2026-05-06 13:27 42.43047 -5.12603 35978 ft 468 kts 20°
2026-05-06 13:27 42.48996 -5.09152 35971 ft 468 kts 20°
2026-05-06 13:28 42.54985 -5.05671 35971 ft 468 kts 20°
2026-05-06 13:28 42.60961 -5.02189 35975 ft 467 kts 20°
2026-05-06 13:29 42.66939 -4.98700 35971 ft 467 kts 20°
2026-05-06 13:29 42.72909 -4.95208 35975 ft 467 kts 20°
2026-05-06 13:30 42.78888 -4.91703 35973 ft 467 kts 20°
2026-05-06 13:30 42.84845 -4.88203 35979 ft 466 kts 20°
2026-05-06 13:31 42.90787 -4.84704 35994 ft 465 kts 20°
2026-05-06 13:31 42.96697 -4.81216 35996 ft 465 kts 20°
2026-05-06 13:32 43.02639 -4.77703 35998 ft 465 kts 20°
2026-05-06 13:32 43.08574 -4.74186 36007 ft 464 kts 20°
2026-05-06 13:33 43.14505 -4.70664 36020 ft 464 kts 20°
2026-05-06 13:33 43.20423 -4.67142 36014 ft 463 kts 20°
2026-05-06 13:34 43.26319 -4.63625 36034 ft 461 kts 20°
2026-05-06 13:34 43.32209 -4.60105 36037 ft 461 kts 20°
2026-05-06 13:35 43.38092 -4.56582 36028 ft 461 kts 20°
2026-05-06 13:35 43.43932 -4.53077 36032 ft 461 kts 21°
2026-05-06 13:36 43.49815 -4.49539 36040 ft 461 kts 21°
2026-05-06 13:36 43.55692 -4.45998 36036 ft 461 kts 21°
2026-05-06 13:37 43.61573 -4.42447 36038 ft 461 kts 21°
2026-05-06 13:37 43.67449 -4.38890 36032 ft 462 kts 21°
2026-05-06 13:38 43.73337 -4.35318 36032 ft 462 kts 21°
2026-05-06 13:38 43.79226 -4.31738 36030 ft 462 kts 21°
2026-05-06 13:39 43.85078 -4.28173 36029 ft 462 kts 21°
2026-05-06 13:39 43.90958 -4.24583 36029 ft 462 kts 21°
2026-05-06 13:40 43.96849 -4.20978 36029 ft 462 kts 21°
2026-05-06 13:40 44.02730 -4.17372 36029 ft 462 kts 21°
2026-05-06 13:41 44.08603 -4.13762 36029 ft 461 kts 21°
2026-05-06 13:41 44.14469 -4.10149 36025 ft 461 kts 21°
2026-05-06 13:42 44.20334 -4.06529 36027 ft 460 kts 21°
2026-05-06 13:42 44.26182 -4.02910 36023 ft 460 kts 21°
2026-05-06 13:43 44.32031 -3.99285 36025 ft 460 kts 22°
2026-05-06 13:43 44.37716 -3.95148 36031 ft 461 kts 27°
2026-05-06 13:44 44.43241 -3.90692 36021 ft 461 kts 28°
2026-05-06 13:44 44.48789 -3.86203 36012 ft 460 kts 28°
2026-05-06 13:45 44.53445 -3.82473 36021 ft 460 kts 27°
2026-05-06 13:45 44.61767 -3.75839 36025 ft 460 kts 27°
2026-05-06 13:46 44.67337 -3.71393 36019 ft 460 kts 27°
2026-05-06 13:46 44.72912 -3.66930 36021 ft 460 kts 27°
2026-05-06 13:47 44.78480 -3.62463 36013 ft 461 kts 28°
2026-05-06 13:47 44.84049 -3.57984 36015 ft 461 kts 28°
2026-05-06 13:48 44.89613 -3.53499 36007 ft 460 kts 28°
2026-05-06 13:48 44.95174 -3.49006 36003 ft 460 kts 28°
2026-05-06 13:49 45.00699 -3.44533 36007 ft 460 kts 28°
2026-05-06 13:49 45.06249 -3.40028 36004 ft 460 kts 28°
2026-05-06 13:50 45.11798 -3.35515 36006 ft 460 kts 28°
2026-05-06 13:50 45.17342 -3.30995 36004 ft 459 kts 28°
2026-05-06 13:51 45.22889 -3.26463 36002 ft 459 kts 28°
2026-05-06 13:51 45.28421 -3.21933 36001 ft 459 kts 28°
2026-05-06 13:52 45.33951 -3.17393 35999 ft 459 kts 28°
2026-05-06 13:52 45.39481 -3.12844 36001 ft 459 kts 28°
2026-05-06 13:53 45.45003 -3.08291 35997 ft 459 kts 28°
2026-05-06 13:53 45.50493 -3.03754 35994 ft 459 kts 28°
2026-05-06 13:54 45.56016 -2.99180 35997 ft 459 kts 28°
2026-05-06 13:54 45.61543 -2.94591 35997 ft 459 kts 28°
2026-05-06 13:55 45.67057 -2.90002 35994 ft 459 kts 28°
2026-05-06 13:55 45.72576 -2.85399 35994 ft 459 kts 28°
2026-05-06 13:56 45.78093 -2.80786 35990 ft 459 kts 28°
2026-05-06 13:56 45.83611 -2.76163 35988 ft 459 kts 28°
2026-05-06 13:57 45.89124 -2.71533 35989 ft 459 kts 29°
2026-05-06 13:57 45.94630 -2.66897 35988 ft 459 kts 29°
2026-05-06 13:58 46.00117 -2.62267 36252 ft 460 kts 29°
2026-05-06 13:58 46.02873 -2.59936 36470 ft 459 kts 29°
2026-05-06 13:58 46.05662 -2.57576 36704 ft 459 kts 29°
2026-05-06 13:59 46.08376 -2.55276 36866 ft 459 kts 29°
2026-05-06 13:59 46.11133 -2.52938 37005 ft 460 kts 29°
2026-05-06 13:59 46.13895 -2.50595 37152 ft 461 kts 28°
2026-05-06 13:59 46.16772 -2.48583 37304 ft 459 kts 19°
2026-05-06 14:00 46.19821 -2.47207 37468 ft 458 kts 11°
2026-05-06 14:00 46.22957 -2.46524 37611 ft 456 kts
2026-05-06 14:00 46.26124 -2.46064 37764 ft 457 kts
2026-05-06 14:00 46.29294 -2.45630 37897 ft 457 kts
2026-05-06 14:01 46.35638 -2.44693 37977 ft 460 kts
2026-05-06 14:01 46.42006 -2.43670 37980 ft 459 kts
2026-05-06 14:02 46.48328 -2.42384 37973 ft 460 kts 13°
2026-05-06 14:02 46.54207 -2.38879 37986 ft 462 kts 28°
2026-05-06 14:03 46.59762 -2.34183 37988 ft 461 kts 29°
2026-05-06 14:03 46.65300 -2.29479 37976 ft 461 kts 28°
2026-05-06 14:04 46.70871 -2.24827 37972 ft 461 kts 28°
2026-05-06 14:04 46.76441 -2.20197 37968 ft 461 kts 28°
2026-05-06 14:05 46.82013 -2.15553 37975 ft 461 kts 28°
2026-05-06 14:05 46.87599 -2.10883 37976 ft 462 kts 28°
2026-05-06 14:06 46.93237 -2.06529 37967 ft 461 kts 24°
2026-05-06 14:06 46.99053 -2.02543 37974 ft 462 kts 24°
2026-05-06 14:07 47.04460 -1.97464 37969 ft 464 kts 36°
2026-05-06 14:07 47.09559 -1.91643 37969 ft 464 kts 36°
2026-05-06 14:08 47.14707 -1.85889 37962 ft 465 kts 36°
2026-05-06 14:08 47.19879 -1.80189 37972 ft 465 kts 36°
2026-05-06 14:09 47.25061 -1.74480 37972 ft 465 kts 36°
2026-05-06 14:09 47.30240 -1.68751 37970 ft 465 kts 36°
2026-05-06 14:10 47.35276 -1.62744 37963 ft 467 kts 45°
2026-05-06 14:10 47.39351 -1.55357 37962 ft 467 kts 52°
2026-05-06 14:11 47.43288 -1.47719 37966 ft 467 kts 52°
2026-05-06 14:11 47.47249 -1.40115 37970 ft 467 kts 51°
2026-05-06 14:12 47.51233 -1.32538 37973 ft 467 kts 51°
2026-05-06 14:12 47.55224 -1.24951 37971 ft 467 kts 51°
2026-05-06 14:13 47.59202 -1.17361 37970 ft 467 kts 51°
2026-05-06 14:13 47.63176 -1.09754 37972 ft 466 kts 51°
2026-05-06 14:14 47.67144 -1.02136 37971 ft 466 kts 51°
2026-05-06 14:14 47.71103 -0.94517 37971 ft 466 kts 51°
2026-05-06 14:15 47.75034 -0.86930 37972 ft 466 kts 52°
2026-05-06 14:15 47.78980 -0.79289 37970 ft 466 kts 52°
2026-05-06 14:16 47.82924 -0.71630 37973 ft 466 kts 52°
2026-05-06 14:16 47.86863 -0.63958 37966 ft 466 kts 52°
2026-05-06 14:17 47.90795 -0.56279 37969 ft 466 kts 52°
2026-05-06 14:17 47.94724 -0.48583 37968 ft 466 kts 52°
2026-05-06 14:18 47.98644 -0.40885 37971 ft 466 kts 52°
2026-05-06 14:18 48.02561 -0.33169 37970 ft 466 kts 52°
2026-05-06 14:19 48.06442 -0.25505 37970 ft 466 kts 52°
2026-05-06 14:19 48.10394 -0.17826 37973 ft 465 kts 51°
2026-05-06 14:20 48.14380 -0.10180 37965 ft 466 kts 51°
2026-05-06 14:20 48.18354 -0.02523 37972 ft 466 kts 52°
2026-05-06 14:21 48.22319 0.05161 37973 ft 466 kts 52°
2026-05-06 14:21 48.26280 0.12866 37967 ft 466 kts 52°
2026-05-06 14:22 48.30242 0.20594 37978 ft 467 kts 52°
2026-05-06 14:22 48.34201 0.28338 37961 ft 468 kts 52°
2026-05-06 14:23 48.38167 0.36116 37961 ft 468 kts 52°
2026-05-06 14:23 48.42141 0.43881 37955 ft 469 kts 52°
2026-05-06 14:24 48.46138 0.51643 37951 ft 469 kts 52°
2026-05-06 14:24 48.50107 0.59381 37951 ft 469 kts 52°
2026-05-06 14:25 48.54601 0.66482 37941 ft 468 kts 37°
2026-05-06 14:25 48.59833 0.72327 37945 ft 468 kts 35°
2026-05-06 14:26 48.65078 0.78165 37952 ft 468 kts 36°
2026-05-06 14:26 48.70288 0.84110 37948 ft 469 kts 36°
2026-05-06 14:27 48.75492 0.90083 37938 ft 469 kts 36°
2026-05-06 14:27 48.80692 0.96060 37942 ft 469 kts 36°
2026-05-06 14:28 48.85862 1.02017 37940 ft 470 kts 36°
2026-05-06 14:28 48.91095 1.08066 37938 ft 470 kts 37°
2026-05-06 14:29 48.96273 1.14066 37947 ft 470 kts 37°
2026-05-06 14:29 49.01473 1.20107 37935 ft 471 kts 37°
2026-05-06 14:30 49.06462 1.26575 37948 ft 471 kts 43°
2026-05-06 14:30 49.11185 1.33514 37936 ft 471 kts 43°
2026-05-06 14:31 49.15880 1.40408 37939 ft 471 kts 43°
2026-05-06 14:31 49.20639 1.47314 37937 ft 471 kts 43°
2026-05-06 14:32 49.24598 1.53059 37949 ft 471 kts 43°
2026-05-06 14:32 49.29354 1.59982 37952 ft 472 kts 43°
2026-05-06 14:33 49.34111 1.66924 37929 ft 472 kts 43°
2026-05-06 14:33 49.38837 1.73843 37938 ft 472 kts 43°
2026-05-06 14:34 49.43589 1.80819 37936 ft 472 kts 43°
2026-05-06 14:34 49.48334 1.87804 37944 ft 472 kts 43°
2026-05-06 14:35 49.53040 1.94878 37937 ft 473 kts 46°
2026-05-06 14:35 49.57498 2.02340 37938 ft 473 kts 48°
2026-05-06 14:36 49.61889 2.09900 37937 ft 473 kts 47°
2026-05-06 14:36 49.66296 2.17439 37931 ft 473 kts 47°
2026-05-06 14:37 49.70690 2.24914 37934 ft 472 kts 47°
2026-05-06 14:37 49.75136 2.32484 37922 ft 473 kts 47°
2026-05-06 14:38 49.79526 2.39980 37906 ft 473 kts 47°
2026-05-06 14:38 49.83933 2.47532 37914 ft 472 kts 47°
2026-05-06 14:39 49.88329 2.55088 37909 ft 472 kts 48°
2026-05-06 14:39 49.92718 2.62654 37912 ft 471 kts 48°
2026-05-06 14:40 49.97096 2.70224 37915 ft 471 kts 48°
2026-05-06 14:40 50.01468 2.77805 37913 ft 471 kts 48°
2026-05-06 14:41 50.05844 2.85415 37914 ft 471 kts 48°
2026-05-06 14:41 50.10211 2.93035 37909 ft 471 kts 48°
2026-05-06 14:42 50.14545 3.00617 37912 ft 471 kts 48°
2026-05-06 14:42 50.18906 3.08267 37910 ft 472 kts 48°
2026-05-06 14:43 50.23644 3.15331 37911 ft 471 kts 34°
2026-05-06 14:43 50.29381 3.20180 37921 ft 470 kts 24°
2026-05-06 14:44 50.35348 3.24369 37908 ft 470 kts 23°
2026-05-06 14:45 50.44273 3.30836 37912 ft 471 kts 24°
2026-05-06 14:45 50.50209 3.35212 37909 ft 472 kts 24°
2026-05-06 14:46 50.56189 3.39477 37909 ft 472 kts 22°
2026-05-06 14:46 50.62220 3.43577 37911 ft 472 kts 22°
2026-05-06 14:47 50.68259 3.47705 37908 ft 473 kts 22°
2026-05-06 14:47 50.74250 3.51847 37906 ft 473 kts 22°
2026-05-06 14:48 50.80275 3.56033 37902 ft 474 kts 23°
2026-05-06 14:48 50.86305 3.60233 37897 ft 473 kts 23°
2026-05-06 14:49 50.92340 3.64450 37900 ft 473 kts 23°
2026-05-06 14:49 50.98344 3.68746 37895 ft 473 kts 24°
2026-05-06 14:50 51.04340 3.73077 37895 ft 473 kts 24°
2026-05-06 14:50 51.10219 3.77325 37902 ft 472 kts 23°
2026-05-06 14:51 51.16195 3.81649 37903 ft 472 kts 23°
2026-05-06 14:51 51.22148 3.85966 37903 ft 473 kts 24°
2026-05-06 14:52 51.28127 3.90323 37891 ft 473 kts 24°
2026-05-06 14:52 51.34108 3.94706 37897 ft 473 kts 24°
2026-05-06 14:53 51.40049 3.99071 37888 ft 473 kts 24°
2026-05-06 14:53 51.46026 4.03473 37886 ft 473 kts 24°
2026-05-06 14:54 51.52009 4.07891 37888 ft 473 kts 24°
2026-05-06 14:54 51.57995 4.12325 37895 ft 474 kts 24°
2026-05-06 14:55 51.61385 4.14843 37879 ft 475 kts 24°
2026-05-06 14:55 51.67423 4.19338 37895 ft 475 kts 24°
2026-05-06 14:56 51.73380 4.23784 37886 ft 475 kts 24°
2026-05-06 14:56 51.79372 4.28272 37886 ft 475 kts 24°
2026-05-06 14:57 51.85381 4.32790 37876 ft 475 kts 24°
2026-05-06 14:57 51.91377 4.37313 37881 ft 476 kts 24°
2026-05-06 14:58 51.97385 4.41858 37897 ft 476 kts 24°
2026-05-06 14:58 52.03352 4.46385 37884 ft 476 kts 24°
2026-05-06 14:59 52.09358 4.50955 37885 ft 476 kts 24°
2026-05-06 14:59 52.15367 4.55542 37895 ft 476 kts 24°
2026-05-06 15:00 52.21370 4.60137 37910 ft 477 kts 24°
2026-05-06 15:00 52.27368 4.64741 37914 ft 477 kts 24°
2026-05-06 15:01 52.33371 4.69363 37908 ft 477 kts 24°
2026-05-06 15:01 52.39376 4.74001 37916 ft 477 kts 24°
2026-05-06 15:02 52.45375 4.78647 37911 ft 477 kts 24°
2026-05-06 15:02 52.51339 4.83423 37901 ft 478 kts 30°
2026-05-06 15:03 52.56499 4.90257 37898 ft 478 kts 49°
2026-05-06 15:03 52.60611 4.98846 37900 ft 478 kts 53°
2026-05-06 15:04 52.64650 5.07525 37907 ft 478 kts 52°
2026-05-06 15:04 52.68734 5.16094 37899 ft 479 kts 52°
2026-05-06 15:05 52.72848 5.24735 37902 ft 479 kts 52°
2026-05-06 15:05 52.76960 5.33411 37902 ft 480 kts 52°
2026-05-06 15:06 52.81067 5.42101 37900 ft 480 kts 52°
2026-05-06 15:06 52.85166 5.50819 37905 ft 480 kts 52°
2026-05-06 15:07 52.89266 5.59574 37909 ft 481 kts 52°
2026-05-06 15:07 52.93361 5.68346 37910 ft 481 kts 52°
2026-05-06 15:08 52.97457 5.77149 37917 ft 482 kts 52°
2026-05-06 15:08 53.01546 5.85969 37925 ft 482 kts 52°
2026-05-06 15:09 53.05607 5.94759 37922 ft 482 kts 52°
2026-05-06 15:09 53.09686 6.03617 37926 ft 482 kts 53°
2026-05-06 15:10 53.13761 6.12498 37921 ft 483 kts 53°
2026-05-06 15:10 53.17832 6.21405 37913 ft 483 kts 53°
2026-05-06 15:11 53.21892 6.30318 37910 ft 483 kts 53°
2026-05-06 15:11 53.25921 6.39197 37913 ft 482 kts 53°
2026-05-06 15:12 53.29967 6.48145 37914 ft 482 kts 53°
2026-05-06 15:12 53.34014 6.57109 37914 ft 482 kts 52°
2026-05-06 15:13 53.38687 6.65118 37932 ft 482 kts 41°
2026-05-06 15:13 53.43705 6.72600 37920 ft 482 kts 41°
2026-05-06 15:14 53.48660 6.80185 37919 ft 483 kts 42°
2026-05-06 15:14 53.53593 6.87844 37920 ft 483 kts 42°
2026-05-06 15:15 53.58570 6.95449 37920 ft 483 kts 40°
2026-05-06 15:15 53.63702 7.02643 37923 ft 483 kts 39°
2026-05-06 15:16 53.68901 7.09930 37913 ft 489 kts 39°
2026-05-06 15:16 53.74081 7.17324 37914 ft 487 kts 39°
2026-05-06 15:17 53.79235 7.24757 37917 ft 485 kts 40°
2026-05-06 15:17 53.84369 7.32149 37917 ft 484 kts 36°
2026-05-06 15:18 53.90155 7.37789 37909 ft 478 kts 19°
2026-05-06 15:18 53.95326 7.40853 37919 ft 477 kts 14°
2026-05-06 15:19 54.01851 7.43117 37921 ft 474 kts
2026-05-06 15:19 54.08358 7.45042 37921 ft 475 kts
2026-05-06 15:19 54.11617 7.46049 37622 ft 480 kts
2026-05-06 15:20 54.14910 7.47091 37094 ft 480 kts
2026-05-06 15:20 54.18182 7.48137 36498 ft 478 kts
2026-05-06 15:20 54.21447 7.49181 35914 ft 477 kts
2026-05-06 15:20 54.24709 7.50221 35271 ft 477 kts
2026-05-06 15:21 54.27972 7.51261 34602 ft 477 kts
2026-05-06 15:21 54.31239 7.52303 33902 ft 478 kts
2026-05-06 15:21 54.34513 7.53349 33088 ft 479 kts
2026-05-06 15:21 54.37782 7.54396 32460 ft 477 kts
2026-05-06 15:22 54.41047 7.55444 31714 ft 477 kts
2026-05-06 15:22 54.44319 7.56496 30955 ft 478 kts
2026-05-06 15:22 54.47553 7.57537 30177 ft 479 kts
2026-05-06 15:22 54.50882 7.58611 29247 ft 481 kts
2026-05-06 15:23 54.54138 7.59664 28332 ft 482 kts
2026-05-06 15:23 54.57432 7.60730 27413 ft 483 kts
2026-05-06 15:23 54.60734 7.61801 26454 ft 484 kts
2026-05-06 15:23 54.64048 7.62877 25525 ft 485 kts
2026-05-06 15:24 54.67349 7.63951 24773 ft 481 kts
2026-05-06 15:24 54.70631 7.65021 24061 ft 476 kts
2026-05-06 15:24 54.73880 7.66079 23317 ft 473 kts
2026-05-06 15:24 54.77097 7.67127 22519 ft 468 kts
2026-05-06 15:25 54.80270 7.68163 21809 ft 462 kts
2026-05-06 15:25 54.83410 7.69189 21105 ft 456 kts
2026-05-06 15:25 54.86512 7.70205 20413 ft 451 kts
2026-05-06 15:25 54.89588 7.71213 19733 ft 446 kts
2026-05-06 15:26 54.92579 7.72195 19073 ft 441 kts
2026-05-06 15:26 54.95585 7.73184 18417 ft 437 kts
2026-05-06 15:26 54.98559 7.74248 17648 ft 435 kts 12°
2026-05-06 15:26 55.01399 7.75976 16992 ft 431 kts 22°
2026-05-06 15:27 55.04027 7.78436 16401 ft 426 kts 28°
2026-05-06 15:27 55.06567 7.81037 15733 ft 421 kts 28°
2026-05-06 15:27 55.09083 7.83634 15086 ft 417 kts 28°
2026-05-06 15:27 55.11567 7.86187 14446 ft 413 kts 28°
2026-05-06 15:28 55.14016 7.88687 13813 ft 408 kts 28°
2026-05-06 15:28 55.16479 7.91188 13112 ft 404 kts 28°
2026-05-06 15:28 55.18901 7.93642 12445 ft 399 kts 28°
2026-05-06 15:28 55.21260 7.96029 11850 ft 394 kts 28°
2026-05-06 15:29 55.23617 7.98415 11218 ft 389 kts 29°
2026-05-06 15:29 55.25922 8.00753 11026 ft 374 kts 28°
2026-05-06 15:29 55.28126 8.02993 10860 ft 359 kts 28°
2026-05-06 15:29 55.30247 8.05151 10708 ft 346 kts 29°
2026-05-06 15:30 55.32292 8.07232 10567 ft 334 kts 29°
2026-05-06 15:30 55.34265 8.09242 10438 ft 322 kts 29°
2026-05-06 15:30 55.36172 8.11187 10291 ft 312 kts 29°
2026-05-06 15:30 55.38019 8.13074 10171 ft 302 kts 29°
2026-05-06 15:31 55.39812 8.14909 10051 ft 293 kts 29°
2026-05-06 15:31 55.40725 8.15844 9977 ft 288 kts 29°
2026-05-06 15:31 55.41808 8.17160 9903 ft 284 kts 42°
2026-05-06 15:32 55.44376 8.22243 9464 ft 275 kts 49°
2026-05-06 15:32 55.45606 8.24804 9175 ft 273 kts 49°
2026-05-06 15:32 55.46830 8.27338 8902 ft 270 kts 49°
2026-05-06 15:32 55.48050 8.29848 8636 ft 268 kts 49°
2026-05-06 15:33 55.49044 8.31883 8405 ft 267 kts 49°
2026-05-06 15:33 55.50254 8.34356 8134 ft 265 kts 49°
2026-05-06 15:33 55.51459 8.36815 7863 ft 263 kts 49°
2026-05-06 15:33 55.52515 8.38969 7633 ft 262 kts 49°
2026-05-06 15:34 55.53401 8.40776 7432 ft 261 kts 49°
2026-05-06 15:34 55.54586 8.43192 7167 ft 259 kts 49°
2026-05-06 15:34 55.55377 8.44808 6989 ft 258 kts 49°
2026-05-06 15:34 55.56548 8.47202 6732 ft 257 kts 49°
2026-05-06 15:35 55.57722 8.49586 6474 ft 256 kts 47°
2026-05-06 15:35 55.59042 8.51653 6285 ft 252 kts 38°
2026-05-06 15:35 55.60437 8.53516 6011 ft 251 kts 37°
2026-05-06 15:35 55.61831 8.55349 5747 ft 249 kts 37°
2026-05-06 15:36 55.63139 8.57083 5524 ft 248 kts 37°
2026-05-06 15:36 55.64513 8.58928 5255 ft 248 kts 37°
2026-05-06 15:36 55.65878 8.60775 5007 ft 246 kts 38°
2026-05-06 15:36 55.67231 8.62618 4752 ft 244 kts 38°
2026-05-06 15:37 55.68574 8.64455 4493 ft 243 kts 37°
2026-05-06 15:37 55.69906 8.66283 4247 ft 241 kts 38°
2026-05-06 15:37 55.71193 8.68049 4152 ft 234 kts 38°
2026-05-06 15:37 55.72253 8.70150 4016 ft 228 kts 63°
2026-05-06 15:38 55.72675 8.72790 3950 ft 219 kts 79°
2026-05-06 15:38 55.72857 8.75469 3857 ft 220 kts 83°
2026-05-06 15:38 55.72960 8.78191 3742 ft 224 kts 85°
2026-05-06 15:38 55.73039 8.80982 3505 ft 226 kts 85°
2026-05-06 15:39 55.73116 8.83770 3254 ft 226 kts 85°
2026-05-06 15:39 55.73191 8.86542 3063 ft 223 kts 85°
2026-05-06 15:39 55.73265 8.89220 2948 ft 213 kts 85°
2026-05-06 15:39 55.73338 8.91827 2681 ft 210 kts 84°
2026-05-06 15:40 55.73414 8.94398 2401 ft 207 kts 85°
2026-05-06 15:40 55.73485 8.96877 2124 ft 200 kts 85°
2026-05-06 15:40 55.73555 8.99295 1839 ft 192 kts 85°
2026-05-06 15:40 55.73622 9.01584 1618 ft 181 kts 85°
2026-05-06 15:41 55.73687 9.03768 1364 ft 173 kts 84°
2026-05-06 15:41 55.73747 9.05830 1146 ft 162 kts 84°
2026-05-06 15:41 55.73806 9.07743 950 ft 147 kts 85°
2026-05-06 15:41 55.73859 9.09496 721 ft 139 kts 85°
2026-05-06 15:42 55.73906 9.11187 515 ft 135 kts 83°
2026-05-06 15:42 55.73964 9.12831 301 ft 133 kts 84°
2026-05-06 15:42 55.74011 9.14400 216 ft 114 kts 86°
2026-05-06 15:42 55.74043 9.15447 215 ft 67 kts 86°
2026-05-06 15:43 55.74067 9.16230 217 ft 59 kts 86°
2026-05-06 15:43 55.74083 9.16782 215 ft 23 kts 87°
2026-05-06 15:43 55.74170 9.16910 215 ft 18 kts 359°
2026-05-06 15:43 55.74253 9.16819 223 ft 14 kts 262°
2026-05-06 15:44 55.74247 9.16649 215 ft 13 kts 265°
2026-05-06 15:44 55.74241 9.16487 215 ft 13 kts 266°
2026-05-06 15:44 55.74236 9.16329 218 ft 13 kts 266°
2026-05-06 15:44 55.74231 9.16164 215 ft 14 kts 266°
2026-05-06 15:45 55.74225 9.15981 218 ft 17 kts 267°
2026-05-06 15:45 55.74218 9.15747 218 ft 22 kts 266°
2026-05-06 15:45 55.74209 9.15453 215 ft 26 kts 266°
2026-05-06 15:45 55.74199 9.15140 215 ft 21 kts 266°
2026-05-06 15:46 55.74271 9.14992 215 ft 19 kts 356°
2026-05-06 15:46 55.74396 9.14979 220 ft 18 kts 355°
2026-05-06 15:46 55.74450 9.14817 215 ft 17 kts 266°
2026-05-06 15:46 55.74478 9.14753 218 ft 6 kts
2026-05-06 15:47 55.74518 9.14751 222 ft 6 kts 356°
2026-05-06 15:47 55.74529 9.14750 219 ft 0 kts 357°